Theta_e
324 324 324 324 322 321 318 317 316 316 325 335 326 321 329 330 323 327 330 328 341 344 335 354 361 355 363 363 359 360 359 360 365 368 368 365 363 360 358 356 356 354 348 345 347 349 350 351 350 350 351 351 351 352 352 351 351 350 348 348 348 349 350
325 322 321 323 321 323 321 314 318 322 322 332 330 321 328 328 322 333 334 330 340 335 330 354 366 358 363 368 370 370 365 363 365 367 365 362 362 357 356 356 354 353 349 346 348 349 351 353 352 352 352 351 352 352 352 352 351 350 349 349 349 348 349
326 327 321 320 321 322 323 321 323 321 315 319 321 320 326 323 322 336 337 333 338 334 337 353 358 362 369 366 371 373 368 366 365 366 362 357 358 356 355 356 356 354 350 347 350 351 352 353 352 353 353 353 353 353 352 352 351 352 351 350 349 348 348
322 328 325 317 319 321 321 322 323 322 323 323 318 319 323 321 324 335 333 329 334 341 354 361 352 366 372 362 368 369 362 364 364 364 363 359 358 359 359 357 355 355 351 348 350 351 352 353 352 353 353 352 353 352 352 352 351 351 350 349 349 348 348
321 325 327 321 322 322 319 318 317 318 322 321 319 319 320 324 331 336 331 327 335 350 361 361 352 362 367 361 362 363 360 360 359 358 360 360 360 362 360 355 353 355 351 348 351 352 352 353 353 353 352 351 352 351 351 352 351 350 349 348 349 348 348
317 325 329 324 324 324 324 322 319 320 321 320 320 318 320 325 330 335 332 325 335 356 359 358 356 357 362 359 354 357 358 357 358 357 355 356 359 359 356 354 355 356 352 348 350 351 351 352 352 351 351 350 350 350 350 351 350 349 349 348 347 348 348
322 328 329 324 320 321 327 325 324 328 325 323 323 318 319 325 325 331 332 323 335 362 360 356 358 353 355 354 349 353 356 355 357 354 351 354 354 354 354 355 357 354 348 348 350 351 351 352 351 350 351 350 349 350 349 349 349 348 348 347 347 347 348
347 340 337 335 327 324 326 325 326 329 324 326 329 327 329 330 326 328 327 320 336 364 364 359 359 353 356 352 347 352 353 355 356 351 353 356 354 355 357 357 355 349 345 348 349 349 350 350 351 351 350 350 349 349 349 348 348 348 347 347 347 347 347
333 330 331 336 332 327 327 329 328 328 331 331 328 332 335 329 325 329 325 321 337 362 367 367 363 357 365 362 349 348 352 357 358 355 356 357 354 357 358 355 355 352 350 350 348 348 349 349 350 350 350 350 349 349 348 348 348 348 347 346 346 346 347
318 317 324 332 332 327 326 330 329 327 333 330 324 328 329 323 323 327 327 326 339 357 364 365 362 359 365 365 353 350 353 357 359 359 357 356 355 357 357 355 355 354 353 351 346 346 348 348 349 350 349 350 350 349 349 348 347 348 348 347 346 346 345
322 324 339 345 336 324 320 324 326 327 331 332 334 329 322 327 328 328 338 340 330 338 352 356 362 363 361 362 359 359 360 357 357 358 355 355 355 355 355 353 353 354 354 351 347 344 345 347 348 349 350 350 350 350 349 349 348 348 348 348 346 346 345
327 334 347 343 332 324 322 325 325 328 331 334 337 327 320 331 327 322 349 357 328 327 347 351 359 366 363 364 364 364 364 358 358 359 357 358 358 355 354 352 353 355 354 351 347 344 343 345 346 348 349 350 350 350 349 349 350 349 348 348 347 347 346
333 335 336 335 332 327 328 330 328 330 333 331 329 327 328 334 327 325 348 356 337 335 342 345 353 359 359 360 358 357 358 357 358 360 361 362 362 360 360 356 353 353 354 352 347 343 343 345 345 346 346 348 350 350 350 351 350 350 349 349 348 348 347
333 333 332 333 329 328 328 332 334 331 334 337 331 330 337 336 333 342 348 347 348 345 336 339 347 350 350 353 352 353 359 362 362 361 364 365 365 365 365 359 353 350 352 350 345 342 343 344 344 345 345 346 349 350 350 351 351 351 350 349 349 349 348
331 336 339 335 332 332 327 329 339 335 329 335 332 331 341 333 330 345 348 344 357 355 341 343 349 350 350 351 354 359 362 364 364 361 363 366 367 367 366 360 353 350 349 349 345 342 343 343 345 345 344 345 347 348 351 351 352 351 350 350 350 349 348
328 334 335 335 336 334 327 327 341 339 328 330 329 330 341 335 330 341 338 335 351 356 348 347 351 352 354 352 356 361 359 359 363 363 363 366 369 370 366 361 356 351 351 351 348 343 342 343 345 345 345 345 345 348 351 352 352 352 350 349 350 349 348
332 338 334 335 333 326 326 334 343 342 334 333 330 331 340 340 339 343 334 332 346 352 350 352 351 353 358 357 358 358 357 358 361 360 362 367 372 373 369 364 360 357 353 348 344 342 342 344 345 346 346 345 345 348 351 352 353 351 350 350 349 349 349
333 345 339 331 325 322 333 346 345 337 334 333 331 332 336 339 341 345 347 348 350 347 347 352 355 359 364 358 352 349 351 359 360 358 359 365 371 371 364 358 357 356 351 344 341 343 343 344 346 347 347 346 345 348 352 353 353 352 351 351 350 350 350
332 341 334 323 324 334 346 343 335 331 330 331 334 334 335 339 342 349 359 360 355 349 345 342 345 351 351 348 348 348 348 355 357 356 357 361 367 367 364 363 361 354 346 342 342 343 344 345 346 347 347 346 346 349 352 352 352 352 351 351 350 350 350
330 329 326 326 334 346 346 337 333 336 337 336 332 329 335 342 343 348 359 358 352 350 345 339 342 347 344 346 354 355 351 352 353 354 357 358 363 366 363 364 363 353 345 344 345 344 345 346 346 347 348 347 346 349 351 351 351 352 351 351 351 350 350
333 330 328 331 332 333 336 337 336 336 338 338 332 328 336 344 341 343 350 350 348 352 352 348 349 351 348 348 354 355 350 349 349 350 352 352 355 358 351 347 350 347 345 346 346 345 346 347 347 348 347 346 347 348 348 349 349 350 350 350 350 349 349
335 332 326 326 324 327 336 338 335 334 336 339 334 329 334 342 340 341 346 344 344 349 355 355 352 347 345 346 348 346 344 346 346 347 347 343 342 343 340 340 344 345 345 346 345 346 347 347 347 348 346 347 349 349 348 348 348 347 348 348 349 349 349
331 325 323 326 327 332 340 340 337 337 337 337 332 325 331 342 342 342 345 345 342 342 348 355 353 345 343 347 346 340 341 347 346 345 346 342 336 336 338 341 344 345 346 346 346 347 348 347 348 348 346 348 350 351 350 349 347 348 348 349 350 351 350
331 326 326 329 329 334 342 340 339 340 339 335 328 325 334 344 345 344 346 347 344 342 344 348 350 349 348 348 345 340 340 345 345 342 343 343 338 336 338 340 343 346 347 345 346 347 347 347 349 348 346 349 351 352 352 350 350 350 351 352 352 352 352
334 329 325 326 329 336 341 339 339 340 338 328 326 331 338 343 344 346 346 346 345 345 347 347 347 349 348 344 343 340 339 344 347 342 336 336 337 337 338 342 344 346 346 346 347 348 347 348 349 349 348 350 352 353 352 351 352 352 352 353 352 352 352
337 333 327 325 330 336 338 338 341 341 334 328 331 337 341 342 345 348 346 345 346 348 350 349 346 346 344 342 341 340 339 344 348 344 339 340 343 342 342 345 346 346 347 347 347 347 347 348 349 349 349 351 353 352 351 351 353 352 352 353 352 352 352
341 342 339 335 335 336 335 340 346 346 344 342 341 342 343 344 346 346 345 346 346 347 349 349 347 346 344 343 342 341 341 342 344 345 345 347 348 346 345 347 347 346 347 347 347 347 347 348 349 349 350 351 352 352 351 351 352 352 352 353 352 352 351
341 346 347 341 338 337 336 340 346 345 343 343 341 340 341 343 343 344 344 344 345 346 347 348 347 346 343 342 344 344 343 342 345 348 347 343 343 344 345 347 348 346 346 347 347 347 347 348 349 349 350 351 352 352 352 351 351 352 352 353 351 350 349
337 341 341 336 335 337 336 337 343 341 337 338 337 338 340 342 342 343 343 343 345 346 345 345 345 345 344 343 343 344 344 343 344 347 345 341 340 342 344 346 347 347 347 346 346 347 348 348 349 349 349 350 351 352 350 350 351 352 353 352 351 349 348
334 335 337 332 328 332 334 334 336 337 338 339 338 338 341 342 342 341 342 344 346 345 343 344 344 343 344 344 342 342 345 345 343 344 344 340 339 341 343 345 347 347 347 346 346 348 349 349 350 350 350 350 350 349 348 350 351 352 352 352 349 348 348
329 331 336 330 324 330 337 335 332 333 334 335 335 337 340 340 340 339 341 343 344 343 343 345 346 344 344 343 342 341 343 344 345 347 347 343 339 340 343 344 347 348 346 346 346 348 348 350 350 351 351 351 350 347 347 350 352 352 352 351 349 348 349
328 329 332 327 323 330 337 334 329 329 328 328 330 334 336 338 338 338 340 342 342 341 342 343 345 345 343 342 344 344 343 344 347 347 344 340 339 341 342 344 346 348 346 345 346 347 348 350 351 351 352 352 350 349 349 350 350 351 351 350 348 348 349
327 329 329 326 325 330 333 329 326 325 324 324 327 329 332 336 337 338 339 340 339 340 342 342 345 346 343 342 343 342 341 344 347 345 341 339 339 341 342 343 346 347 347 346 346 347 348 349 350 352 352 351 350 349 349 350 350 349 349 349 348 348 349
327 329 328 324 324 328 330 326 323 322 320 322 324 326 331 336 336 337 340 340 338 337 338 340 344 347 344 342 343 342 342 343 343 341 339 339 340 341 341 343 346 347 347 347 346 347 348 348 350 352 352 350 349 348 349 350 350 349 349 349 348 348 348
326 326 324 322 325 328 328 325 322 320 320 321 324 327 332 336 335 336 340 342 341 339 336 336 340 346 346 343 343 344 343 340 339 340 340 341 342 341 341 342 345 346 347 348 347 347 347 348 349 350 350 349 347 348 350 350 349 348 348 348 347 348 348
324 324 324 325 327 328 325 322 322 320 319 322 327 331 333 333 332 332 336 341 344 344 342 337 337 342 345 343 342 345 345 340 337 339 341 342 342 342 341 341 343 346 347 347 347 347 347 347 348 349 348 348 348 349 350 349 348 349 348 347 347 347 347
323 324 324 324 324 325 323 321 320 320 320 324 329 330 329 329 329 330 334 336 337 340 344 346 341 339 340 339 338 341 342 338 337 339 341 342 343 343 342 342 343 345 346 346 345 344 341 340 342 342 342 346 348 349 349 348 347 347 347 346 346 346 346
Wind_Speed
6 6 5 5 4 3 1 2 3 4 4 7 5 2 0 3 1 2 1 3 4 3 4 5 4 3 4 5 4 1 1 1 2 4 4 4 4 5 5 5 6 6 7 10 12 13 14 14 15 17 18 19 20 21 22 23 24 24 23 25 28 31 32
6 4 4 1 1 4 5 2 5 3 2 4 4 2 3 4 1 3 2 3 5 3 2 5 6 4 5 5 4 3 3 3 4 5 4 4 5 4 4 5 5 5 6 9 11 12 13 13 14 15 16 16 17 18 19 20 21 23 23 25 27 29 31
6 3 4 3 5 2 4 4 3 2 2 0 1 2 1 1 2 3 4 4 3 3 4 5 4 5 6 6 5 5 5 4 5 5 5 5 4 4 4 4 4 5 5 7 10 11 12 13 13 14 13 13 15 16 17 18 18 20 21 23 26 28 31
4 5 3 1 3 3 2 2 1 2 3 4 2 2 3 3 2 2 3 4 3 5 6 5 6 8 7 7 6 6 7 6 5 5 5 5 5 4 4 5 4 4 4 7 10 11 12 12 12 12 12 12 13 14 15 16 17 18 19 21 22 24 27
4 3 1 4 4 2 1 2 1 1 1 2 2 1 1 3 3 3 1 2 5 7 5 7 9 9 8 9 8 8 7 6 6 6 5 5 5 5 5 4 3 3 5 7 9 9 10 11 11 12 12 13 13 13 14 14 15 15 16 17 18 20 22
2 5 6 4 5 5 5 4 4 3 3 3 3 1 2 2 3 4 4 1 7 7 4 6 8 7 7 8 8 8 7 6 7 6 5 5 4 4 3 3 4 4 5 7 9 9 11 12 13 13 13 13 13 13 13 13 14 14 13 13 15 17 19
5 9 8 2 4 4 4 3 3 4 3 4 5 2 3 1 2 2 4 1 6 6 3 5 6 5 5 6 7 7 6 6 6 5 4 4 2 1 2 4 4 4 6 9 10 11 12 13 14 15 14 14 13 13 12 12 13 13 12 12 12 14 17
5 8 7 3 3 3 3 2 1 4 2 2 5 5 3 3 2 1 3 0 6 6 3 3 4 5 5 5 5 6 6 5 5 5 4 3 2 2 3 4 4 5 7 9 10 10 12 13 14 15 15 13 13 12 12 12 12 12 11 11 11 13 15
5 6 6 6 4 2 2 2 2 2 4 4 4 3 3 2 3 4 4 2 7 6 4 4 3 4 5 5 3 5 6 5 5 4 4 3 4 4 4 4 5 5 6 6 7 10 12 13 14 15 14 13 13 13 12 11 11 10 10 10 10 11 14
1 1 2 3 3 1 1 1 3 1 5 5 4 3 4 1 3 5 4 4 7 7 6 5 5 4 5 5 1 3 5 5 4 3 2 3 4 4 5 5 5 5 5 5 7 9 12 13 14 15 14 14 13 12 11 10 10 10 10 10 9 9 11
5 6 6 5 1 1 0 1 1 3 1 5 5 5 3 3 3 2 5 6 4 10 9 6 5 4 6 6 2 3 5 4 2 2 3 4 3 4 4 4 4 4 5 5 6 9 12 13 14 14 13 14 13 12 10 10 11 11 11 11 9 7 8
6 8 8 5 2 1 3 2 2 3 1 4 7 4 3 5 5 2 7 5 3 8 9 7 7 6 6 7 6 5 4 3 3 4 5 4 4 3 3 4 5 5 6 5 6 8 10 11 12 13 12 12 13 12 11 10 11 12 11 12 10 6 6
3 4 5 4 1 1 3 3 4 3 3 5 4 3 5 7 6 5 6 6 6 8 8 8 9 9 8 8 5 3 3 5 5 5 5 5 4 4 4 5 6 6 6 6 6 8 9 10 11 12 12 12 12 13 13 12 12 12 12 12 11 8 6
4 3 3 2 1 0 2 4 4 3 4 7 6 4 6 7 5 6 4 5 7 9 8 8 8 6 6 4 3 4 4 5 6 6 6 5 5 6 6 6 6 6 6 6 6 7 8 10 12 12 13 13 13 13 13 13 13 13 12 12 11 9 8
4 4 5 5 3 0 3 5 5 4 3 3 3 3 5 5 4 3 1 1 7 7 5 5 4 3 6 4 4 5 5 5 7 6 6 6 6 6 7 6 5 5 6 5 5 6 9 12 13 14 15 14 13 13 13 13 14 14 13 12 12 10 8
5 4 5 6 5 2 1 6 6 3 2 2 2 2 4 4 3 1 2 2 6 5 4 5 4 3 6 6 6 6 4 5 7 7 7 7 7 7 7 7 6 6 6 6 6 8 10 13 15 16 16 15 14 14 14 14 14 14 13 13 12 10 9
6 5 4 4 5 5 3 6 5 5 3 2 2 3 4 4 4 6 3 5 6 5 3 4 4 4 6 7 7 6 5 6 7 7 8 8 8 8 7 7 7 7 7 8 9 11 13 15 17 17 17 16 15 15 14 14 15 15 14 13 12 11 9
5 7 4 4 4 1 4 5 5 4 3 4 4 3 6 5 2 2 5 5 5 6 5 6 8 7 5 5 7 7 6 7 8 7 8 8 8 7 6 6 7 7 6 8 10 12 13 15 16 16 16 17 16 14 13 13 15 15 15 14 14 12 11
3 4 5 3 2 6 7 4 2 4 4 5 5 2 5 6 5 6 6 6 6 7 8 8 8 6 4 2 3 6 5 7 9 8 8 8 7 7 6 7 7 6 6 8 10 11 12 13 14 15 16 16 15 14 13 13 14 15 15 15 14 13 12
2 0 2 2 5 7 6 5 4 1 1 3 3 1 5 7 6 5 7 8 6 6 8 7 5 5 4 4 2 6 6 6 7 8 9 9 9 8 8 8 9 10 11 12 12 12 12 13 14 16 16 16 15 14 14 14 14 14 14 14 13 13 12
3 3 2 2 4 7 6 3 3 2 3 3 0 2 5 5 2 3 8 10 8 7 6 4 2 1 2 4 5 3 4 6 7 7 8 9 9 10 9 11 13 14 13 14 12 11 13 14 15 16 16 16 15 15 14 14 14 13 13 13 13 12 12
2 3 2 1 2 5 5 3 4 3 4 5 3 3 3 5 6 7 8 10 10 9 5 2 2 3 2 3 5 4 2 4 6 5 6 6 7 8 10 12 14 13 11 11 11 11 14 15 14 15 17 17 15 14 15 14 13 12 11 11 11 11 12
1 4 4 3 4 5 4 7 10 9 6 5 2 2 3 6 9 10 9 10 11 9 6 2 3 5 3 5 5 5 4 3 6 6 6 5 5 8 11 13 15 14 12 11 11 12 14 15 15 16 18 18 16 14 14 12 11 11 11 10 10 9 10
2 3 4 3 3 2 4 9 12 11 7 2 3 2 5 6 9 9 8 9 10 7 6 5 3 4 3 5 5 6 6 4 6 7 7 7 6 8 11 14 15 14 13 13 13 14 16 16 15 16 18 18 16 14 13 12 11 12 11 10 8 7 7
2 3 3 2 1 1 6 11 11 9 6 1 3 4 5 6 9 8 6 7 7 6 6 5 4 2 4 6 8 8 6 4 5 6 7 8 7 8 11 13 13 13 15 15 15 15 16 16 17 18 19 19 16 13 12 13 13 11 9 8 7 7 7
1 2 3 1 1 1 7 12 9 5 3 1 3 4 4 5 8 7 6 5 5 6 6 4 2 4 6 7 8 8 8 4 2 3 5 6 6 6 8 11 13 15 15 15 14 13 14 16 18 19 20 19 16 12 13 15 13 10 8 8 7 8 8
1 2 2 1 2 3 10 12 7 4 4 1 4 4 4 5 6 6 6 5 5 4 5 3 2 4 6 6 7 9 10 7 3 1 4 5 6 8 9 11 16 17 15 15 15 14 14 17 19 21 21 19 15 14 15 15 12 9 9 9 8 8 9
1 2 2 1 3 5 7 6 2 1 1 2 3 3 5 5 5 5 5 6 6 5 5 5 5 4 6 6 6 8 9 9 7 3 1 1 4 8 11 13 16 17 15 14 14 13 14 16 19 20 21 19 16 16 17 14 11 10 9 8 8 9 9
1 2 3 2 2 4 4 2 1 2 2 2 3 4 5 5 4 4 4 6 7 5 5 6 5 5 5 6 5 5 6 7 7 6 3 1 3 6 8 11 15 18 17 15 14 13 14 16 18 19 20 19 17 17 16 14 12 11 10 9 9 9 9
3 3 3 0 3 5 4 3 2 2 2 3 5 5 5 5 5 5 4 5 7 5 4 4 5 6 7 6 5 3 4 5 6 7 6 3 3 5 8 11 13 16 16 14 14 14 13 15 17 18 19 19 18 17 16 14 13 12 12 11 11 10 9
3 2 3 4 6 6 5 4 5 4 4 6 7 6 6 7 7 7 6 5 6 6 4 4 5 7 7 7 7 6 5 6 6 6 7 7 5 6 9 11 11 12 12 13 15 15 14 16 18 18 18 19 18 16 15 15 14 13 14 14 12 11 11
2 4 5 7 7 6 3 1 4 5 6 9 10 8 8 8 9 10 8 5 5 7 6 4 4 6 7 7 7 7 6 6 5 4 6 9 9 8 10 11 11 12 13 14 16 17 16 18 20 19 19 19 18 16 15 15 15 15 16 16 13 12 11
4 4 5 8 9 6 3 3 6 6 6 8 10 11 10 9 9 10 9 6 4 6 7 7 5 6 7 6 6 7 6 5 4 5 7 10 10 8 9 11 13 15 16 16 16 17 18 19 21 21 20 19 18 16 15 15 16 17 18 17 14 12 12
4 4 4 5 5 6 6 7 8 8 7 8 10 10 10 8 8 9 10 8 6 5 6 7 6 7 8 7 7 7 6 5 5 7 10 13 13 10 8 10 15 17 18 17 15 16 17 19 21 22 21 19 18 17 15 15 17 18 18 17 15 14 13
5 6 6 4 3 5 7 8 9 9 7 7 9 9 9 8 8 7 7 8 8 8 8 8 6 6 7 8 8 8 8 8 10 11 13 14 16 16 13 9 14 17 19 19 18 18 18 20 21 22 21 19 18 17 17 17 18 19 18 17 16 16 15
5 7 8 6 5 6 8 9 10 10 8 6 7 8 7 8 8 8 7 6 6 8 10 11 11 10 8 8 9 9 8 11 15 16 17 17 17 18 17 11 12 15 14 13 12 12 13 16 18 20 20 20 18 17 17 18 19 19 18 17 17 17 16
7 8 7 5 5 7 8 8 8 9 8 6 6 7 8 9 10 10 8 6 5 6 7 9 13 14 11 10 12 11 9 12 16 17 17 17 16 16 15 12 8 5 3 1 3 5 6 4 2 2 7 12 15 16 18 19 19 19 18 18 18 18 17
Wind_Direction
195 212 211 166 152 166 157 121 165 219 178 120 118 193 135 82 128 251 256 271 294 319 309 324 1 342 324 342 356 17 294 279 177 196 207 203 195 182 179 184 188 192 191 192 193 198 201 200 201 209 215 221 225 226 228 231 233 230 224 220 218 218 222
260 230 174 91 36 137 123 176 212 204 102 92 105 124 13 39 195 275 312 269 297 347 310 321 353 331 296 302 302 285 265 220 214 228 219 214 209 188 184 187 186 189 190 191 191 196 203 201 202 209 215 221 226 229 231 233 234 231 228 225 222 221 223
291 335 95 36 344 51 122 171 187 113 122 185 62 121 127 97 214 285 316 303 283 205 230 287 298 255 246 254 264 267 250 215 219 239 235 227 219 195 188 185 190 194 192 191 187 190 199 201 202 207 211 218 224 229 233 235 237 236 234 232 228 226 226
315 2 57 152 298 346 57 131 94 41 140 163 160 143 154 159 173 245 307 329 288 227 217 218 234 235 221 220 238 245 238 222 216 224 226 224 215 206 205 196 193 183 171 186 190 191 194 195 197 201 208 220 227 230 233 237 240 238 236 235 232 231 231
359 351 279 189 187 164 133 188 234 308 73 131 156 96 93 130 141 177 223 311 270 252 208 190 223 235 212 205 215 226 231 223 220 219 215 219 216 212 216 196 163 144 149 167 177 185 193 196 200 205 213 223 227 231 234 238 240 238 235 236 235 237 237
344 261 248 196 187 184 161 171 192 182 144 124 128 315 304 113 121 163 162 212 268 261 200 203 228 224 209 209 210 221 229 221 224 225 211 213 220 218 208 156 130 137 145 147 153 171 187 195 202 208 216 224 228 232 237 241 243 241 240 242 245 248 249
245 262 270 199 184 190 144 130 148 146 134 120 128 195 238 133 91 138 128 149 272 264 212 225 247 241 229 220 209 219 231 225 228 232 223 222 225 191 134 128 131 137 138 144 156 173 187 194 201 209 217 225 231 236 240 245 248 249 250 252 255 258 258
298 294 307 14 85 105 92 38 89 127 128 122 144 174 177 135 145 139 94 299 272 277 274 252 258 262 255 235 213 216 228 238 236 227 224 220 169 126 130 131 127 128 139 152 164 177 188 196 203 209 215 224 233 238 241 246 252 258 264 262 258 258 259
344 341 342 353 356 51 102 316 308 127 113 100 123 135 89 79 185 157 122 241 256 274 311 321 322 305 273 251 213 206 219 236 240 223 204 175 141 138 148 138 132 144 155 167 178 185 192 200 205 208 213 221 229 235 239 247 253 261 271 268 259 258 261
195 205 256 262 263 256 117 309 310 8 107 124 155 122 80 73 198 154 151 220 263 293 310 317 330 328 287 268 215 197 221 226 230 219 167 142 139 156 168 157 154 166 176 187 193 196 200 204 206 208 210 216 225 234 242 252 257 261 271 271 264 260 261
188 196 224 250 266 40 340 131 303 303 84 115 113 98 105 173 164 183 216 205 268 302 294 282 288 281 265 266 251 223 231 219 192 150 119 121 139 162 171 162 163 176 192 205 207 207 209 208 209 210 211 213 221 233 245 255 260 262 269 270 265 262 260
206 199 223 267 7 357 252 188 179 254 256 91 91 113 176 150 120 272 259 193 194 277 273 255 249 240 239 250 246 235 223 181 145 127 121 129 144 160 169 172 183 193 202 211 214 215 214 213 213 215 215 215 220 231 242 251 258 259 262 264 263 264 261
262 209 237 254 164 186 248 219 207 211 172 140 128 165 179 145 142 230 236 180 198 258 269 249 229 213 213 224 221 203 161 138 132 131 137 152 168 186 200 201 201 206 209 211 212 213 210 210 216 219 219 218 219 227 237 245 253 255 255 256 256 258 263
330 344 319 305 132 263 284 265 260 253 198 177 163 174 177 169 199 226 194 188 240 259 256 250 239 205 192 187 145 148 160 149 142 143 154 175 192 203 215 219 210 207 215 216 209 204 202 205 212 217 218 217 216 223 232 238 245 249 249 250 249 248 258
321 335 5 26 39 176 242 281 312 321 279 196 158 165 166 177 239 257 102 268 273 272 267 278 285 159 150 157 168 189 195 161 148 155 168 187 204 215 225 229 216 205 212 216 206 200 201 203 207 213 216 216 215 219 227 231 236 241 241 243 245 242 246
294 316 21 14 11 68 249 294 299 281 247 213 214 210 179 183 194 159 38 304 265 276 323 331 311 164 164 191 203 205 204 168 160 172 180 190 206 217 225 230 222 206 203 208 208 202 200 201 205 212 214 213 212 215 220 223 228 232 232 233 238 236 234
279 298 10 14 23 43 334 278 228 197 202 208 251 295 266 224 149 139 198 243 240 262 315 318 281 222 197 211 210 203 196 179 177 186 186 192 207 214 219 224 223 217 208 209 210 203 199 200 205 210 211 209 210 212 215 216 218 224 227 227 230 231 227
264 292 330 12 27 20 257 244 187 186 226 191 187 257 260 245 205 186 232 247 257 270 268 243 233 221 213 219 213 208 190 170 180 194 193 198 207 213 220 224 224 225 217 214 211 205 201 203 205 207 208 207 208 208 210 211 210 215 221 223 227 230 226
230 306 7 13 284 231 239 281 279 235 231 171 163 229 259 249 267 282 280 275 267 265 257 242 236 245 276 303 200 206 198 172 174 183 194 203 207 209 217 224 229 228 217 212 206 197 197 198 197 198 201 203 203 201 202 205 206 209 213 217 222 226 225
201 22 85 173 247 257 276 328 354 321 350 74 103 268 267 249 244 262 280 281 277 273 266 261 263 271 294 318 243 208 202 186 173 175 191 199 203 207 207 209 218 218 214 213 206 191 187 186 184 188 193 195 196 197 198 201 205 208 210 213 217 220 222
160 150 193 227 288 300 304 347 35 21 337 335 335 241 263 265 271 302 301 303 308 300 288 286 301 322 16 335 302 253 205 203 188 185 197 199 202 210 206 207 218 221 218 216 207 187 180 179 180 182 183 185 190 193 197 201 206 208 210 215 218 218 220
114 125 215 283 281 263 265 293 314 305 277 267 242 208 265 319 1 354 328 323 321 310 304 342 27 53 71 280 292 343 344 227 201 201 220 214 213 217 207 206 219 226 220 211 199 183 177 178 179 176 176 181 186 189 194 200 202 204 210 216 218 217 218
104 138 189 209 204 224 269 311 314 314 296 270 215 178 267 325 356 359 352 345 336 321 302 322 79 99 161 240 274 345 340 245 203 205 221 219 221 224 214 211 217 219 211 197 185 178 176 177 177 175 176 180 184 188 193 194 194 199 209 215 215 213 213
203 159 192 223 212 228 327 326 317 315 310 305 112 189 265 313 343 347 354 356 352 346 330 343 48 117 193 252 281 307 307 263 207 200 209 213 214 215 218 220 220 213 199 184 177 179 181 179 175 175 178 181 186 192 192 191 197 206 213 217 215 212 211
219 185 207 266 252 253 334 329 317 313 320 64 147 214 251 308 326 325 338 353 1 25 31 19 19 343 293 294 293 301 310 283 221 203 203 209 214 218 220 221 215 203 193 189 187 187 186 181 175 175 179 182 188 192 191 196 205 210 212 214 214 216 219
315 199 200 277 246 262 336 333 321 328 20 131 216 248 260 289 305 310 323 335 355 36 53 52 355 321 315 311 318 337 345 326 259 201 178 174 186 209 217 214 207 197 191 190 190 188 186 183 180 178 179 183 189 189 192 200 206 205 205 211 215 220 224
350 36 70 79 222 300 344 347 344 13 50 188 252 290 291 287 303 317 325 329 339 9 27 20 321 314 317 329 358 7 359 349 349 155 171 169 172 179 188 201 203 197 191 190 191 190 188 184 183 182 180 183 188 192 198 203 202 199 204 212 216 216 217
34 36 45 143 232 283 335 357 1 11 15 228 248 301 305 304 315 322 328 332 330 338 344 329 314 319 329 341 11 22 7 355 358 15 56 197 198 190 193 203 204 198 195 193 190 191 191 188 186 187 186 184 187 197 203 204 198 198 203 206 208 208 207
255 219 213 197 251 286 316 3 329 303 305 277 283 299 295 295 301 307 320 326 324 329 329 318 317 330 332 335 356 28 28 9 352 349 355 257 239 231 224 217 209 203 200 194 185 188 195 194 190 191 191 188 189 198 202 197 194 197 199 198 200 201 200
287 249 236 4 1 325 329 355 334 304 283 295 312 315 295 280 284 287 288 298 307 319 337 344 338 324 318 327 335 353 42 40 7 349 339 308 250 236 239 235 223 211 202 191 184 186 195 199 197 196 197 196 195 198 195 189 191 196 196 196 198 196 194
334 296 296 348 347 318 316 342 341 341 342 331 327 315 288 282 290 289 281 284 299 309 330 355 341 319 320 334 334 333 14 36 20 359 337 317 289 237 233 238 235 223 206 190 185 187 194 201 201 200 201 202 203 202 193 188 193 198 195 195 197 196 193
283 264 287 325 323 291 252 290 332 345 350 335 327 318 303 294 290 287 286 287 295 306 315 322 318 317 324 330 326 333 1 17 10 356 324 307 299 274 248 236 229 227 221 207 194 191 195 201 203 204 205 205 206 206 198 192 194 195 193 193 197 200 197
294 282 312 341 337 318 304 329 330 337 341 327 319 317 315 306 297 299 303 296 283 296 304 303 311 323 318 313 321 333 347 0 355 336 316 308 306 296 269 245 227 221 225 224 211 200 198 201 203 205 207 207 207 207 204 198 192 191 191 193 197 201 201
290 272 300 335 331 306 298 312 320 321 324 323 317 316 316 312 308 314 315 304 290 286 284 283 301 318 312 311 326 333 336 351 349 327 318 317 320 322 301 259 235 224 223 228 227 215 206 202 202 205 208 208 207 208 209 203 195 190 190 192 195 199 201
252 260 272 273 262 266 276 289 300 304 313 320 312 307 305 301 303 312 315 308 305 305 296 283 279 290 296 309 328 334 331 336 338 331 327 326 327 330 324 274 236 228 223 223 225 220 210 202 201 205 208 206 206 209 211 206 199 195 193 191 193 196 198
257 267 263 247 235 256 272 284 294 301 308 307 297 296 297 296 299 304 303 292 285 292 300 301 302 306 309 317 327 332 330 329 331 333 334 335 336 336 330 300 252 237 231 228 235 234 220 207 200 201 204 205 206 210 210 203 200 201 200 196 195 196 197
249 255 253 247 246 259 273 284 288 288 288 283 283 296 301 299 300 303 302 295 277 273 288 302 309 314 316 315 319 324 320 317 325 335 342 347 355 357 345 323 285 246 208 128 53 42 42 44 71 199 224 220 210 206 205 202 201 205 206 204 201 199 198